[[{"header":{"parameterUnit":"m.s-1","parameterCategory":1,"la1":30.2991,"la2":30.254,"lo1":-89.0895,"lo2":-89.0444,"dy":0.0017,"dx":0.0017,"nx":28,"ny":28,"refTime":"2025-01-14T03:00:00:Z","depth":0,"parameterNumber":2,"parameterNumberName":"U-component_of_WINDS"},"data":[0,0,0,0,0,0,0,0,0,0,0,0,0,0,0,0,0,0,0,0,0,0,0,0,0,0,0,0,0,0,0,0,0,0,0,0,0,0,0,0,0,0,0,0,0,0,0,0,0,0,0,0,0,0,0,0,0,0,-0.6424,-0.6424,0,-0.6438,-0.6438,-0.6438,-0.642,-0.642,-0.6419,-0.6418,-0.6435,-0.6436,-0.6437,0,0,0,0,0,0,0,0,0,0,0,0,0,-0.6382,-0.6383,-0.6424,-0.6424,-0.6424,-0.6438,-0.6438,-0.6438,-0.642,-0.642,-0.6419,-0.6418,-0.6434,-0.6436,-0.6437,0,0,0,0,0,0,0,0,0,0,0,0,0,-0.6398,-0.6383,-0.6424,-0.6417,-0.6416,-0.6438,-0.6438,-0.6438,-0.6421,-0.642,-0.6419,-0.6418,-0.6434,-0.6436,-0.6437,-0.6467,0,0,-0.6442,-0.6443,0,0,0,0,0,0,0,0,-0.6398,-0.64,-0.6418,-0.6417,-0.6417,-0.6426,-0.6429,-0.6448,-0.6421,-0.6419,-0.6418,-0.6417,-0.6433,-0.6435,-0.644,-0.6468,-0.6469,-0.6442,-0.6443,-0.6444,-0.6444,0,0,0,0,0,0,0,-0.6396,-0.6399,-0.643,-0.6418,-0.6417,-0.6413,-0.6414,-0.6433,-0.6432,-0.6419,-0.6418,-0.642,-0.6433,-0.6438,-0.644,-0.6469,-0.6442,-0.6444,-0.6445,-0.6445,-0.6521,-0.6522,0,0,0,0,0,0,-0.6396,-0.6398,-0.6429,-0.643,-0.6404,-0.6415,-0.6416,-0.6424,-0.6431,-0.6431,-0.642,-0.6419,-0.6436,-0.6438,-0.644,-0.6475,-0.6444,-0.6445,-0.6446,-0.652,-0.6521,-0.6522,0,0,0,0,0,0,-0.6395,-0.6399,-0.6428,-0.6414,-0.6417,-0.6416,-0.6426,-0.6425,-0.6431,-0.6432,-0.6432,-0.6426,-0.6435,-0.6438,-0.646,-0.6475,-0.6446,-0.6447,-0.6519,-0.652,-0.6522,-0.6545,0,0,0,0,0,0,-0.6394,-0.6399,-0.641,-0.6414,-0.6418,-0.6448,-0.6427,-0.6426,-0.6433,-0.6431,-0.6438,-0.6438,-0.6435,-0.6458,-0.6462,-0.6477,-0.6449,-0.6517,-0.6519,-0.6521,-0.6543,-0.6548,-0.6551,0,0,0,0,0,-0.6392,-0.6417,-0.6411,-0.6414,-0.6432,-0.6449,-0.6451,-0.6447,-0.6434,-0.6446,-0.6447,-0.6438,-0.6473,-0.646,-0.6464,-0.6481,-0.6516,-0.6519,-0.6521,-0.6541,-0.6547,-0.6551,0,0,0,0,0,0,-0.6416,-0.6417,-0.6411,-0.6437,-0.6443,-0.6446,-0.646,-0.6452,-0.6463,-0.646,-0.6454,-0.6456,-0.6479,-0.6482,-0.6468,-0.6509,-0.6493,-0.6496,-0.6507,-0.6512,-0.6516,-0.6515,-0.645,0,0,0,0,0,-0.6424,-0.6437,-0.6437,-0.6461,-0.6464,-0.6461,-0.6469,-0.6464,-0.647,-0.6473,-0.6476,-0.6482,-0.6495,-0.6503,-0.6515,-0.6543,-0.6544,-0.6556,-0.656,-0.6563,-0.6567,-0.6581,-0.6586,-0.653,-0.653,-0.653,0,0,-0.6441,-0.6443,-0.6452,-0.6465,-0.6469,-0.6483,-0.6464,-0.648,-0.649,-0.6476,-0.6497,-0.6498,-0.6505,-0.653,-0.6541,-0.6533,-0.6582,-0.6566,-0.6569,-0.6571,-0.6584,-0.6589,-0.6594,-0.6532,-0.6531,-0.6531,0,0,-0.6479,-0.6482,-0.6501,-0.6505,-0.6511,-0.6509,-0.6514,-0.6517,-0.6518,-0.6538,-0.6527,-0.6539,-0.6561,-0.6566,-0.6572,-0.661,-0.6602,-0.6613,-0.6635,-0.6649,-0.6653,-0.6657,-0.6671,-0.6675,-0.6616,-0.6617,-0.6617,0,-0.65,-0.652,-0.6513,-0.6528,-0.6534,-0.6521,-0.654,-0.6544,-0.6554,-0.6559,-0.6549,-0.6575,-0.6579,-0.6604,-0.6613,-0.6618,-0.6623,-0.6613,-0.6653,-0.6657,-0.6661,-0.6673,-0.6678,-0.6618,-0.6618,-0.6618,-0.6618,0,-0.6545,-0.6559,-0.6574,-0.6582,-0.659,-0.6607,-0.6602,-0.6611,-0.6605,-0.6604,-0.6624,-0.6628,-0.664,-0.6645,-0.664,-0.667,-0.6664,-0.6654,-0.6637,-0.6667,-0.6679,-0.6684,-0.662,-0.662,-0.6619,-0.6619,0,0,-0.6601,-0.6603,-0.6609,-0.6612,-0.6616,-0.6627,-0.6643,-0.6653,-0.6661,-0.6667,-0.6681,-0.6698,-0.6688,-0.6694,-0.669,-0.6702,-0.6731,-0.669,-0.669,-0.6698,-0.6763,-0.6771,-0.6777,-0.6725,-0.6726,-0.6727,-0.6762,0,-0.6639,-0.6667,-0.666,-0.6688,-0.67,-0.6686,-0.67,-0.6704,-0.6703,-0.6713,-0.6712,-0.6725,-0.6711,-0.6714,-0.6725,-0.6725,-0.6744,-0.6722,-0.6738,-0.6739,-0.6737,-0.6783,-0.6792,-0.6826,-0.6767,-0.6768,-0.6768,0,-0.6688,-0.6695,-0.6724,-0.6724,-0.6729,-0.6742,-0.675,-0.676,-0.6764,-0.6763,-0.6768,-0.6761,-0.6777,-0.6759,-0.6781,-0.6766,-0.6772,-0.6772,-0.6773,-0.6775,-0.6756,-0.6787,-0.6837,-0.6842,-0.6776,-0.6775,-0.6774,0,-0.6726,-0.6742,-0.6761,-0.6764,-0.6766,-0.6775,-0.6776,-0.6779,-0.6785,-0.6792,-0.6796,-0.6805,-0.681,-0.6817,-0.6812,-0.68,-0.6835,-0.6817,-0.6834,-0.6834,-0.6843,-0.6842,-0.6895,-0.6845,-0.6845,-0.6845,-0.6845,0,-0.677,-0.6788,-0.6778,-0.679,-0.6809,-0.68,-0.682,-0.682,-0.6822,-0.6833,-0.6822,-0.6833,-0.6825,-0.6835,-0.6831,-0.6849,-0.6852,-0.6851,-0.685,-0.6852,-0.6853,-0.6857,-0.6854,-0.6847,-0.6846,-0.6846,-0.6846,0,-0.6816,-0.681,-0.6829,-0.6828,-0.6828,-0.6843,-0.6842,-0.6853,-0.685,-0.6864,-0.6867,-0.6863,-0.6874,-0.6869,-0.6881,-0.6878,-0.6902,-0.6898,-0.6901,-0.69,-0.6917,-0.6916,-0.6974,-0.6982,-0.6927,-0.6928,-0.6928,0,-0.6845,-0.6858,-0.6857,-0.6864,-0.6865,-0.6876,-0.6881,-0.6872,-0.6879,-0.6883,-0.6893,-0.6903,-0.6911,-0.693,-0.6928,-0.6937,-0.6933,-0.6952,-0.6934,-0.6936,-0.6933,-0.6932,-0.6934,-0.6957,-0.6957,-0.6958,-0.6958,0,-0.6896,-0.6892,-0.69,-0.6907,-0.6914,-0.6919,-0.6923,-0.6929,-0.692,-0.6928,-0.6938,-0.6944,-0.6955,-0.6966,-0.6973,-0.6974,-0.6965,-0.6964,-0.6968,-0.6971,-0.6972,-0.6972,-0.6911,-0.6963,-0.6962,-0.6962,-0.6962,-0.6962,-0.6935,-0.6946,-0.6946,-0.6956,-0.6957,-0.6961,-0.6971,-0.6968,-0.6976,-0.6984,-0.6979,-0.6991,-0.6993,-0.7002,-0.7004,-0.7014,-0.7006,-0.7013,-0.7014,-0.7016,-0.7018,-0.697,-0.7015,-0.7015,-0.7015,-0.7015,-0.7015,0,-0.6986,-0.6985,-0.6994,-0.6999,-0.7006,-0.6995,-0.6998,-0.7005,-0.7016,-0.7018,-0.7025,-0.7037,-0.7046,-0.7044,-0.7052,-0.706,-0.7056,-0.7063,-0.7062,-0.7063,-0.7025,-0.702,-0.7066,-0.7066,-0.7066,-0.7066,-0.7066,-0.7066,-0.7014,-0.7031,-0.7027,-0.7044,-0.7043,-0.7055,-0.7058,-0.7061,-0.7062,-0.7076,-0.7083,-0.7081,-0.7081,-0.7089,-0.7096,-0.7095,-0.7099,-0.7107,-0.7105,-0.707,-0.7065,-0.7061,-0.7056,-0.7108,-0.7108,-0.7142,-0.7142,-0.7142]},{"header":{"parameterUnit":"m.s-1","parameterCategory":1,"la1":30.2991,"la2":30.254,"lo1":-89.0895,"lo2":-89.0444,"dy":0.0017,"dx":0.0017,"nx":28,"ny":28,"refTime":"2025-01-14T03:00:00:Z","depth":0,"parameterNumber":3,"parameterNumberName":"V-component_of_WINDS"},"data":[0,0,0,0,0,0,0,0,0,0,0,0,0,0,0,0,0,0,0,0,0,0,0,0,0,0,0,0,0,0,0,0,0,0,0,0,0,0,0,0,0,0,0,0,0,0,0,0,0,0,0,0,0,0,0,0,0,0,-3.6497,-3.6498,0,-3.6615,-3.6616,-3.6618,-3.6614,-3.6612,-3.6611,-3.6609,-3.6726,-3.673,-3.6735,0,0,0,0,0,0,0,0,0,0,0,0,0,-3.6266,-3.627,-3.6497,-3.6498,-3.65,-3.6615,-3.6616,-3.6618,-3.6614,-3.6612,-3.661,-3.6608,-3.6724,-3.673,-3.6735,0,0,0,0,0,0,0,0,0,0,0,0,0,-3.6373,-3.6272,-3.6496,-3.6512,-3.6514,-3.6614,-3.6616,-3.6618,-3.6614,-3.6612,-3.661,-3.6607,-3.6723,-3.6729,-3.6736,-3.6828,0,0,-3.6757,-3.676,0,0,0,0,0,0,0,0,-3.6367,-3.6382,-3.6508,-3.6511,-3.6514,-3.6597,-3.6578,-3.6688,-3.6615,-3.6576,-3.6609,-3.6606,-3.6685,-3.6695,-3.6722,-3.6833,-3.6838,-3.6758,-3.6762,-3.6765,-3.6767,0,0,0,0,0,0,0,-3.636,-3.6376,-3.6543,-3.651,-3.6513,-3.6512,-3.6525,-3.6599,-3.6643,-3.6579,-3.658,-3.6594,-3.6686,-3.6715,-3.6725,-3.684,-3.6758,-3.6764,-3.6768,-3.6771,-3.7033,-3.7036,0,0,0,0,0,0,-3.6349,-3.637,-3.654,-3.6547,-3.6433,-3.6518,-3.6532,-3.6573,-3.6642,-3.665,-3.6596,-3.6593,-3.6705,-3.6717,-3.6729,-3.6842,-3.6765,-3.6772,-3.6776,-3.7031,-3.7034,-3.7037,0,0,0,0,0,0,-3.6344,-3.6365,-3.6535,-3.6459,-3.648,-3.6525,-3.657,-3.6576,-3.6606,-3.6654,-3.6662,-3.6618,-3.6703,-3.6719,-3.6804,-3.6845,-3.6775,-3.6781,-3.7027,-3.7032,-3.7035,-3.7067,0,0,0,0,0,0,-3.6338,-3.6363,-3.6398,-3.646,-3.6484,-3.6609,-3.6573,-3.6581,-3.6618,-3.6616,-3.6677,-3.6685,-3.6703,-3.6793,-3.6811,-3.6854,-3.6786,-3.7024,-3.7029,-3.7034,-3.7062,-3.7072,-3.708,0,0,0,0,0,-3.633,-3.6401,-3.64,-3.6421,-3.653,-3.6611,-3.6625,-3.6645,-3.6622,-3.6658,-3.6689,-3.6683,-3.6838,-3.6802,-3.6821,-3.6867,-3.7021,-3.7028,-3.7034,-3.7058,-3.707,-3.7079,0,0,0,0,0,0,-3.6342,-3.6409,-3.6409,-3.6503,-3.6551,-3.661,-3.6656,-3.6657,-3.6712,-3.6707,-3.6729,-3.6743,-3.6828,-3.6856,-3.6814,-3.696,-3.6927,-3.6937,-3.6939,-3.695,-3.6958,-3.695,-3.6792,0,0,0,0,0,-3.6356,-3.6417,-3.6472,-3.6549,-3.6574,-3.6611,-3.6647,-3.6659,-3.6709,-3.6729,-3.6767,-3.6815,-3.6875,-3.6914,-3.6972,-3.7066,-3.708,-3.7107,-3.7116,-3.7123,-3.7132,-3.7185,-3.7198,-3.7058,-3.7058,-3.7058,0,0,-3.6384,-3.6429,-3.6466,-3.6553,-3.6592,-3.6655,-3.6628,-3.6695,-3.6741,-3.6739,-3.6822,-3.6851,-3.6907,-3.6997,-3.7039,-3.7023,-3.7174,-3.7131,-3.7136,-3.7141,-3.7193,-3.7206,-3.7218,-3.7062,-3.7061,-3.7061,0,0,-3.6469,-3.6509,-3.6578,-3.6619,-3.6679,-3.6703,-3.672,-3.678,-3.6799,-3.6883,-3.6884,-3.6938,-3.7041,-3.7081,-3.7115,-3.7217,-3.7213,-3.7235,-3.728,-3.7332,-3.7343,-3.7352,-3.7389,-3.7402,-3.7243,-3.7243,-3.7243,0,-3.6496,-3.6591,-3.6613,-3.6681,-3.672,-3.6723,-3.6794,-3.6831,-3.6907,-3.6933,-3.6915,-3.7045,-3.7082,-3.7183,-3.7208,-3.7235,-3.7255,-3.7228,-3.7339,-3.735,-3.7359,-3.7395,-3.7408,-3.7246,-3.7245,-3.7245,-3.7245,0,-3.6623,-3.6689,-3.6738,-3.6813,-3.6857,-3.6925,-3.6958,-3.7,-3.7008,-3.7034,-3.712,-3.7166,-3.7233,-3.7258,-3.7266,-3.736,-3.7349,-3.7335,-3.7302,-3.7375,-3.7408,-3.7422,-3.7249,-3.7248,-3.7247,-3.7247,0,0,-3.6717,-3.6805,-3.6823,-3.6857,-3.6925,-3.6976,-3.7045,-3.7113,-3.7149,-3.7201,-3.726,-3.7347,-3.7336,-3.7374,-3.7387,-3.7432,-3.7511,-3.7413,-3.7414,-3.743,-3.7618,-3.7629,-3.7644,-3.7509,-3.7512,-3.7514,-3.7614,0,-3.6809,-3.6933,-3.6956,-3.7064,-3.7125,-3.713,-3.7191,-3.7238,-3.7265,-3.7321,-3.7349,-3.7412,-3.7391,-3.7415,-3.746,-3.7492,-3.7549,-3.7485,-3.7563,-3.7566,-3.755,-3.7662,-3.7672,-3.7764,-3.7627,-3.7629,-3.7631,0,-3.6932,-3.699,-3.7105,-3.7166,-3.7192,-3.7246,-3.7311,-3.7364,-3.7419,-3.7435,-3.7479,-3.7487,-3.7559,-3.7523,-3.7622,-3.7578,-3.7611,-3.7632,-3.7636,-3.7644,-3.7603,-3.7673,-3.7794,-3.7808,-3.7652,-3.765,-3.7649,0,-3.699,-3.7096,-3.7179,-3.7208,-3.7282,-3.732,-3.7352,-3.7404,-3.7444,-3.75,-3.7526,-3.759,-3.7624,-3.7673,-3.7698,-3.7669,-3.7795,-3.7761,-3.7811,-3.781,-3.7837,-3.7835,-3.7965,-3.7858,-3.7858,-3.7858,-3.7857,0,-3.709,-3.716,-3.7206,-3.7257,-3.7336,-3.7362,-3.7439,-3.747,-3.7517,-3.7574,-3.7581,-3.7634,-3.7663,-3.7721,-3.774,-3.782,-3.7835,-3.785,-3.7854,-3.785,-3.7848,-3.7872,-3.7866,-3.7861,-3.7861,-3.786,-3.7859,0,-3.7168,-3.7201,-3.7292,-3.7355,-3.7373,-3.7428,-3.7481,-3.7531,-3.7558,-3.763,-3.7648,-3.7691,-3.7759,-3.7789,-3.7871,-3.7885,-3.7976,-3.7975,-3.7958,-3.7959,-3.8007,-3.8003,-3.8158,-3.818,-3.8058,-3.8059,-3.806,0,-3.7229,-3.7284,-3.7353,-3.7393,-3.7427,-3.749,-3.7531,-3.7559,-3.7601,-3.7669,-3.771,-3.7779,-3.7835,-3.7943,-3.7981,-3.8044,-3.8046,-3.8096,-3.8055,-3.8049,-3.8047,-3.8044,-3.8049,-3.8103,-3.8104,-3.8105,-3.8106,0,-3.7336,-3.735,-3.741,-3.7478,-3.7527,-3.7581,-3.7633,-3.7665,-3.77,-3.7748,-3.7819,-3.7862,-3.7949,-3.8016,-3.8083,-3.8115,-3.8117,-3.8119,-3.8134,-3.8129,-3.8117,-3.8125,-3.7978,-3.8115,-3.8114,-3.8113,-3.8113,-3.8112,-3.7408,-3.7457,-3.7514,-3.7581,-3.7624,-3.7674,-3.7724,-3.7758,-3.7818,-3.7892,-3.7904,-3.7979,-3.8033,-3.8123,-3.8158,-3.8217,-3.8204,-3.8226,-3.8231,-3.8236,-3.824,-3.8108,-3.8229,-3.8229,-3.8228,-3.8228,-3.8228,0,-3.7515,-3.7552,-3.7614,-3.7688,-3.7742,-3.7741,-3.7799,-3.7843,-3.791,-3.7961,-3.8017,-3.8099,-3.8165,-3.8209,-3.8276,-3.8314,-3.8317,-3.8331,-3.8328,-3.8336,-3.8246,-3.8227,-3.8328,-3.8328,-3.8328,-3.8328,-3.8328,-3.8328,-3.7577,-3.766,-3.7682,-3.7787,-3.7824,-3.79,-3.7933,-3.7979,-3.802,-3.8111,-3.8167,-3.8196,-3.8244,-3.8315,-3.8376,-3.8387,-3.8412,-3.8427,-3.8437,-3.8352,-3.8342,-3.8332,-3.8314,-3.8432,-3.8432,-3.8522,-3.8523,-3.8523]}]]